TimeEDT,TemperatureF,Dew PointF,Humidity,Sea Level PressureIn,VisibilityMPH,Wind Direction,Wind SpeedMPH,Gust SpeedMPH,PrecipitationIn,Events,Conditions,WindDirDegrees,DateUTC
12:53 AM,55.0,51.1,86,29.97,10.0,Calm,Calm,-,N/A,,Clear,0,2012-10-02 04:53:00
1:53 AM,55.9,52.0,87,29.97,10.0,WSW,4.6,-,N/A,,Clear,240,2012-10-02 05:53:00
3:53 AM,57.9,54.0,87,29.98,10.0,West,3.5,-,N/A,,Mostly Cloudy,260,2012-10-02 07:53:00
4:53 AM,57.9,53.1,84,30.00,10.0,Calm,Calm,-,N/A,,Scattered Clouds,0,2012-10-02 08:53:00
5:53 AM,59.0,55.0,87,30.00,10.0,Calm,Calm,-,N/A,,Overcast,0,2012-10-02 09:53:00
6:53 AM,59.0,55.0,87,30.03,10.0,SSW,4.6,-,N/A,,Mostly Cloudy,200,2012-10-02 10:53:00
7:53 AM,63.0,59.0,87,30.04,10.0,Calm,Calm,-,N/A,,Partly Cloudy,0,2012-10-02 11:53:00
8:53 AM,68.0,57.9,70,30.06,10.0,WSW,5.8,-,N/A,,Clear,240,2012-10-02 12:53:00
9:53 AM,71.1,59.0,66,30.06,10.0,Variable,4.6,-,N/A,,Clear,0,2012-10-02 13:53:00
10:53 AM,71.1,57.9,63,30.06,10.0,SSW,8.1,-,N/A,,Partly Cloudy,200,2012-10-02 14:53:00
11:53 AM,73.0,55.9,55,30.06,10.0,SSW,5.8,-,N/A,,Clear,210,2012-10-02 15:53:00
12:53 PM,73.9,55.0,52,30.05,10.0,SW,10.4,-,N/A,,Clear,220,2012-10-02 16:53:00
1:53 PM,73.0,55.0,53,30.03,10.0,South,8.1,-,N/A,,Partly Cloudy,190,2012-10-02 17:53:00
2:53 PM,72.0,57.9,61,30.04,10.0,SSW,6.9,-,N/A,,Clear,210,2012-10-02 18:53:00
3:53 PM,71.1,57.9,63,30.06,10.0,SW,4.6,-,N/A,,Overcast,230,2012-10-02 19:53:00
4:53 PM,70.0,57.9,65,30.05,10.0,Calm,Calm,-,N/A,,Mostly Cloudy,0,2012-10-02 20:53:00
5:53 PM,68.0,63.0,84,30.04,10.0,Calm,Calm,-,0.00,Rain,Light Rain,0,2012-10-02 21:53:00
6:53 PM,66.9,63.0,87,30.04,10.0,Calm,Calm,-,0.00,,Mostly Cloudy,0,2012-10-02 22:53:00
9:44 PM,66.2,62.6,88,30.04,10.0,SSE,4.6,-,0.01,,Overcast,160,2012-10-03 01:44:00
9:53 PM,66.9,62.1,84,30.04,10.0,SSE,6.9,-,0.01,,Overcast,150,2012-10-03 01:53:00
10:15 PM,66.2,62.6,88,30.04,10.0,South,3.5,-,0.00,Rain,Light Rain,170,2012-10-03 02:15:00
10:21 PM,66.2,62.6,88,30.04,10.0,South,4.6,-,0.00,Rain,Light Rain,180,2012-10-03 02:21:00
10:53 PM,68.0,64.0,87,30.04,10.0,ESE,3.5,-,0.00,,Overcast,120,2012-10-03 02:53:00
11:53 PM,68.0,64.0,87,30.04,10.0,ENE,3.5,-,N/A,,Overcast,60,2012-10-03 03:53:00